Helicity
45 68 66 72 92 91 87 82 92 76 123 126 105 98 90 109 101 98 89 86 96 105 116 125 125 121 136 131 92 90 116 140 79 65 78 81 79 86 81 86 109 142 142
69 66 62 79 89 108 89 92 88 92 96 116 109 94 111 96 124 119 110 98 105 117 125 136 131 129 133 136 135 95 92 113 127 87 83 100 94 96 104 118 132 149 143
99 78 78 86 98 104 138 111 87 103 97 125 151 163 198 176 173 145 150 126 132 133 145 151 145 143 135 141 135 130 113 100 110 119 90 98 108 97 113 128 138 144 127
196 91 136 152 140 128 141 161 139 113 111 129 145 154 144 144 139 161 162 161 155 146 153 163 163 159 141 143 136 123 117 94 91 80 110 123 115 112 123 118 127 118 105
155 120 163 120 138 188 154 133 190 145 144 125 115 120 158 166 189 237 205 189 176 166 165 169 172 169 146 139 132 121 117 97 87 89 85 108 124 139 135 131 130 101 100
75 141 161 112 162 144 169 158 217 206 168 158 131 106 195 183 222 192 241 213 197 187 180 175 171 162 144 128 115 111 116 107 102 100 108 109 113 121 119 121 122 111 93
69 177 199 271 197 157 217 199 202 295 260 195 173 162 162 161 181 227 229 210 212 198 182 173 158 151 135 122 113 117 114 100 101 101 107 109 111 109 109 110 115 120 117
109 89 108 157 237 169 140 265 408 481 333 247 187 191 206 197 204 220 207 213 203 197 184 171 158 149 138 129 117 112 110 110 113 118 113 109 117 124 133 136 131 128 112
95 137 141 132 127 207 339 360 403 389 407 308 272 262 242 217 217 242 247 234 215 210 197 181 175 161 146 129 120 121 124 113 110 111 117 123 137 147 144 142 138 130 118
89 106 130 195 241 290 341 366 431 423 405 318 317 315 252 258 267 275 257 235 231 229 216 198 178 162 148 136 130 123 117 115 113 114 127 145 144 144 146 158 160 155 146
42 71 129 165 223 277 307 360 408 461 389 353 355 323 287 284 302 289 261 254 246 220 207 181 160 147 142 129 121 114 113 113 114 133 138 143 148 151 162 164 157 158 157
63 41 68 150 230 308 361 397 462 449 389 364 341 309 317 320 318 294 268 246 236 205 176 160 160 148 134 121 117 112 109 120 126 137 144 147 153 147 147 157 151 151 145
68 68 94 124 181 260 322 350 385 392 368 358 332 327 326 321 297 262 235 221 208 194 179 162 149 131 114 102 101 112 120 125 126 126 128 128 134 131 142 144 138 142 142
50 64 95 137 168 209 249 300 332 323 319 326 330 326 293 267 244 232 225 211 186 175 162 145 123 111 102 108 114 113 109 104 107 109 112 120 125 130 136 143 134 137 139
48 64 82 115 163 202 229 262 285 296 307 330 312 280 269 262 254 242 216 193 181 161 135 123 115 111 107 104 98 89 92 101 113 114 114 120 124 115 121 134 132 125 123
41 70 105 117 134 167 206 238 255 269 275 293 296 283 276 258 240 215 199 185 160 140 124 113 114 108 98 92 86 95 106 113 110 116 121 124 114 117 109 110 99 105 128
97 116 100 105 127 139 171 200 243 285 312 333 298 266 249 242 216 195 176 156 135 110 111 106 104 101 92 87 86 94 120 125 119 109 105 110 114 107 117 107 103 113 112
125 127 144 161 179 212 246 303 314 316 322 291 258 237 231 226 198 179 156 126 105 104 107 110 105 92 83 86 92 98 128 122 107 100 97 103 108 113 115 112 104 106 110
63 115 150 186 197 208 240 280 285 296 300 280 255 230 215 200 171 154 120 108 119 125 117 98 93 93 98 98 94 92 107 103 97 104 112 120 118 99 99 114 106 97 108
103 139 179 218 228 231 276 329 326 313 292 244 228 207 186 170 144 130 132 125 118 107 95 90 101 89 87 74 70 81 99 106 123 116 112 103 108 83 78 100 102 115 108
115 220 243 228 218 263 288 313 301 274 261 267 236 202 173 159 134 142 121 112 101 100 106 97 83 71 68 71 77 95 123 125 125 124 124 124 78 58 49 43 90 152 120
168 214 274 257 252 265 290 305 279 268 259 226 209 192 174 155 147 126 108 105 110 102 81 72 78 89 93 89 97 92 93 98 137 131 135 131 82 60 67 100 95 80 84
189 213 269 302 279 277 268 314 292 260 249 235 219 196 165 152 113 116 116 105 87 81 86 89 89 91 93 101 89 92 99 104 135 145 123 85 82 81 104 81 63 79 116
193 260 298 321 317 299 291 310 273 245 256 261 206 160 139 121 131 115 96 86 86 88 85 91 96 96 100 103 105 107 129 115 126 116 119 89 79 82 72 81 88 101 106
214 247 287 333 349 344 338 317 296 299 297 221 172 145 124 131 112 96 87 89 84 81 93 91 95 92 96 89 54 74 109 107 100 92 123 132 86 74 81 84 86 85 81
245 301 359 410 412 395 383 369 339 268 222 184 153 130 124 118 107 106 103 77 67 70 64 59 69 93 64 58 74 114 96 83 68 124 138 84 76 81 83 80 73 73 73
Wind_Speed
49 45 50 47 40 34 30 25 21 20 13 13 13 14 12 15 18 19 21 22 23 25 26 28 30 31 33 33 31 33 38 42 35 33 35 35 36 38 41 38 38 41 48
51 50 48 42 43 37 35 31 25 20 17 16 16 19 13 18 18 18 20 22 23 24 26 27 28 30 31 33 35 32 34 38 42 37 37 40 39 39 44 40 37 41 49
54 47 48 46 43 41 35 32 29 23 20 16 14 15 15 18 20 19 21 24 24 24 25 27 28 30 31 33 35 36 35 36 41 43 39 44 46 47 43 42 41 43 53
53 46 41 41 46 45 40 33 31 32 26 19 19 15 17 21 19 16 20 25 24 24 25 26 28 29 31 32 34 36 37 37 39 40 44 43 44 49 52 45 44 50 58
57 61 52 52 48 44 40 34 29 28 25 27 29 21 23 24 22 19 19 24 24 25 26 27 27 29 31 32 33 36 38 38 40 42 43 45 47 48 52 60 57 62 58
79 63 52 41 45 41 39 36 29 28 31 28 30 27 23 24 17 18 21 25 25 26 27 27 27 28 30 32 33 35 37 39 40 42 45 48 51 53 56 63 68 72 68
79 75 66 60 50 43 39 38 34 34 35 31 28 27 26 20 14 14 20 22 26 30 29 27 27 28 30 31 33 35 38 40 42 45 47 48 52 53 58 64 72 76 74
72 67 63 60 56 42 42 44 41 33 33 29 27 27 23 27 24 22 21 25 28 26 23 25 27 28 30 32 33 36 40 42 45 47 50 52 54 56 60 66 74 85 80
59 65 56 50 45 46 47 45 42 39 31 29 29 28 25 24 26 25 26 27 24 23 23 26 28 30 32 33 35 39 43 45 48 51 54 56 58 60 62 63 66 76 92
54 53 53 50 47 44 39 40 34 28 25 23 23 26 25 23 24 24 23 21 21 21 22 25 27 30 32 35 39 42 46 49 52 55 59 61 62 64 64 65 67 69 80
51 50 48 45 43 41 36 32 28 26 23 22 21 21 22 21 21 19 18 18 19 20 21 23 26 31 36 39 43 46 50 54 57 60 63 66 66 67 67 68 69 71 73
44 40 38 37 35 33 34 31 26 25 23 19 18 19 19 19 18 17 16 16 17 20 21 25 31 36 40 43 47 51 54 59 63 64 66 67 66 69 69 69 71 72 72
40 35 30 27 26 24 24 25 25 24 22 19 19 19 19 17 16 15 15 16 18 21 26 31 35 39 43 47 50 55 58 61 62 63 65 67 68 70 69 70 72 72 73
38 33 28 24 21 20 20 21 21 20 20 20 20 18 16 14 13 13 15 17 20 25 30 34 38 43 47 51 55 58 59 60 61 62 63 65 67 68 70 71 73 74 78
39 34 30 25 24 23 23 22 21 20 19 18 16 14 12 11 12 13 16 21 25 28 32 37 43 47 52 55 58 58 60 61 62 62 63 64 64 66 68 70 73 76 78
45 38 34 31 28 25 24 23 21 19 16 15 13 10 9 9 12 16 20 23 27 32 36 42 47 52 54 57 59 60 60 60 62 66 65 65 66 66 66 67 68 72 78
42 37 34 30 28 25 21 20 18 15 14 11 9 8 9 12 15 18 22 26 30 35 41 46 50 55 57 59 59 60 60 61 64 67 68 69 66 68 69 69 72 72 69
38 34 31 27 23 20 17 13 11 11 10 10 11 11 11 13 16 20 25 30 35 40 45 50 53 56 57 60 62 62 62 63 64 65 67 70 72 71 73 74 74 71 68
32 25 22 21 19 17 15 14 14 14 13 12 10 10 10 13 17 24 29 33 39 45 48 50 55 59 61 62 63 64 64 67 69 66 67 71 72 71 73 73 75 74 71
17 15 15 16 15 15 13 13 13 12 12 11 9 9 11 16 21 26 32 37 42 45 49 55 57 60 62 63 63 63 66 71 73 72 71 70 72 73 73 72 72 74 74
22 15 14 14 14 13 13 14 13 15 10 6 4 7 12 17 23 30 36 40 43 49 55 60 59 59 61 62 64 66 70 73 76 76 75 70 70 71 70 66 70 65 74
23 13 14 15 13 13 13 14 14 9 7 4 5 10 16 23 28 34 38 43 49 54 57 60 61 61 62 64 66 70 72 73 76 77 74 72 71 70 69 70 69 75 79
25 17 17 15 12 13 14 14 11 9 6 6 11 16 22 27 32 37 42 46 49 55 60 62 66 67 66 66 70 74 74 73 73 71 71 74 74 72 69 71 73 73 66
25 20 18 17 16 14 13 12 11 8 6 11 16 20 25 30 33 38 43 47 52 57 61 64 67 70 71 71 72 70 72 72 71 68 68 69 67 70 71 71 66 63 61
25 21 19 18 16 14 12 11 9 7 11 16 19 22 28 33 37 41 45 49 52 54 60 64 68 73 75 74 70 72 75 74 70 73 72 67 70 72 69 65 64 60 58
24 20 18 17 15 14 13 10 8 8 15 18 20 24 30 36 40 45 50 50 52 56 60 64 68 70 71 73 71 70 73 73 73 70 69 72 70 68 66 66 62 58 57
Wind_Direction
245 244 240 241 240 242 241 239 240 248 248 268 282 298 316 329 340 350 353 358 1 1 4 2 1 0 359 358 359 359 356 357 2 2 0 359 356 353 349 351 354 354 352
246 244 243 243 242 242 243 242 241 241 248 263 282 295 312 318 333 341 342 347 352 353 357 358 357 359 359 357 355 357 354 354 354 352 352 346 348 347 346 348 348 347 346
246 244 242 244 246 246 241 241 242 240 249 259 280 303 320 319 324 326 330 334 340 347 352 353 354 353 354 353 353 353 351 348 350 352 348 340 337 338 341 340 341 341 338
248 246 246 251 253 250 245 237 240 247 253 256 268 271 288 299 315 320 323 323 335 341 347 350 350 351 352 352 352 351 348 348 345 346 347 345 340 334 331 336 335 332 331
250 254 254 257 256 251 242 240 236 245 252 258 268 276 288 303 306 310 314 320 329 335 340 344 348 349 349 350 350 347 347 347 344 342 341 339 338 336 330 324 326 326 329
250 250 253 257 255 250 242 242 233 245 258 258 269 276 286 292 302 306 308 309 320 329 334 338 343 346 347 347 347 347 346 345 344 342 339 336 332 330 328 323 322 321 324
255 253 250 251 254 249 241 244 249 257 255 255 265 274 282 290 295 303 304 307 313 318 323 333 338 343 345 346 346 344 344 342 340 338 336 335 332 330 327 324 321 321 322
264 262 256 255 250 238 239 247 249 246 246 250 259 273 283 287 293 301 302 307 310 318 329 333 338 342 343 342 343 341 340 339 337 336 335 332 331 329 327 325 322 319 320
273 264 261 251 242 244 247 245 252 254 246 251 262 275 286 289 293 299 302 307 315 321 326 330 334 338 340 340 340 338 336 336 335 333 332 330 329 328 327 326 325 321 318
282 274 266 258 253 250 248 250 247 235 236 242 263 278 284 293 297 300 303 310 319 324 329 332 335 338 339 337 336 335 335 333 332 331 329 328 328 327 326 325 324 322 318
283 281 273 265 257 253 247 240 236 231 233 249 268 277 286 292 298 302 309 316 324 329 332 335 336 336 334 333 333 332 331 330 329 329 328 326 327 326 326 325 324 322 321
290 286 279 268 260 252 245 239 230 230 239 253 267 277 284 291 297 305 316 325 329 333 335 335 333 332 332 332 331 330 330 329 327 327 327 327 327 326 326 325 323 322 322
295 289 284 274 260 249 239 233 233 235 247 256 264 275 281 288 298 307 318 326 332 334 333 331 331 331 331 331 331 330 329 328 328 328 328 327 327 326 326 326 324 324 323
289 284 279 272 263 250 240 236 240 244 249 258 265 269 276 286 299 312 322 330 331 329 330 332 332 331 331 330 329 329 329 329 329 329 329 329 328 327 327 326 324 324 323
281 278 271 267 261 254 250 250 249 251 253 256 258 265 279 295 308 319 325 326 328 330 332 331 331 331 330 330 330 329 329 329 330 330 330 330 330 328 327 326 325 324 323
276 275 270 266 262 257 254 253 251 249 246 247 254 264 281 301 311 316 322 327 329 330 330 330 330 329 330 330 330 330 330 331 330 329 330 330 329 328 327 326 325 324 322
278 271 267 264 262 258 253 249 247 245 244 243 251 266 285 298 309 319 324 325 327 328 328 329 329 329 330 331 332 332 331 331 330 329 328 328 328 328 327 326 325 324 324
277 270 266 264 264 264 260 251 239 233 230 244 258 271 285 301 314 320 324 326 327 327 328 329 331 332 333 333 332 332 331 330 329 329 328 326 326 326 326 325 324 324 324
285 267 261 259 257 251 245 235 238 240 242 250 258 273 292 308 317 321 324 327 328 328 330 332 332 332 333 334 333 332 330 328 328 329 328 327 326 326 326 324 323 322 322
305 271 260 262 253 250 235 226 231 232 239 244 256 282 303 314 320 324 327 330 331 331 333 332 333 333 333 333 333 333 330 328 329 329 329 329 327 327 326 324 323 322 324
305 279 258 245 243 231 221 228 232 243 240 237 273 310 323 326 329 330 330 331 332 331 330 330 333 333 334 335 334 334 331 329 329 328 329 329 329 328 327 326 323 324 326
302 276 257 254 233 217 215 232 236 218 203 226 291 314 323 327 329 329 330 330 329 330 331 332 333 334 336 336 335 333 331 330 328 328 329 329 329 327 327 327 327 325 325
297 278 262 253 237 227 222 227 221 203 221 271 301 316 323 326 328 328 329 330 331 331 331 331 332 333 335 335 334 333 332 331 329 329 328 328 328 328 328 327 326 327 328
292 278 262 250 243 234 230 213 201 209 243 288 307 316 320 325 330 331 331 331 331 331 332 332 332 332 333 333 333 334 334 332 331 329 329 328 328 328 328 329 331 332 332
291 274 257 246 240 230 218 201 201 215 281 301 308 314 320 325 327 329 330 331 332 333 333 332 331 331 331 332 332 332 334 333 332 330 329 331 330 330 331 333 334 336 337
289 274 261 245 235 231 229 218 226 262 290 299 306 313 319 324 326 327 329 333 333 333 332 332 331 331 330 331 332 332 333 333 332 332 332 331 332 332 333 334 336 338 338